This demonstration page uses our WeatherBlox Daily Observations layout. Learn more.

Left ArrowRight Arrow

Hourly Observations for December 23, 2017

Temp ( °F °C ) Dew Point ( °F °C ) Humidity (%) Winds ( mph kmh ) Pressure ( in mb ) Visibility ( mi km ) Precip ( " mm )
6:30 am 06:30 Cloudy with Light Rain 36 2 34 1 93 93 N 14 22 29.91 1013 4 6 N/A
6:45 am 06:45 Cloudy with Light Rain 36 2 34 1 93 93 N 14 22 29.91 1013 5 8 N/A
7:15 am 07:15 Cloudy 36 2 34 1 93 93 N 14 22 29.94 1014 10 16 N/A
7:45 am 07:45 Cloudy 36 2 34 1 93 93 N 14 22 29.94 1014 10 16 N/A
8:46 am 08:46 Cloudy with Light Rain 36 2 32 0 87 87 N 15 24 29.94 1014 5 8 N/A
9:47 am 09:47 Cloudy with Light Snow 34 1 32 0 93 93 NNW 14 22 30.00 1016 2 2 N/A
10:27 am 10:27 Cloudy with Light Snow 32 0 32 0 100 100 N 13 20 30.03 1017 3 5 N/A
10:50 am 10:50 Cloudy with Light Snow 32 0 32 0 100 100 NNW 10 17 30.03 1017 3 5 N/A
11:16 am 11:16 Cloudy with Mist and Fog 34 1 32 0 93 93 NNW 9 15 30.06 1018 5 8 N/A
11:59 am 11:59 Cloudy with Light Snow 36 2 32 0 87 87 N 12 19 30.03 1017 5 8 N/A
12:51 pm 12:51 Cloudy with Mist and Fog 36 2 32 0 87 87 NNW 14 22 30.03 1017 5 8 N/A
1:07 pm 13:07 Cloudy 36 2 32 0 87 87 NNW 15 24 30.06 1018 7 11 N/A
1:45 pm 13:45 Cloudy 36 2 32 0 87 87 NNW 14 22 30.09 1019 7 11 N/A
2:45 pm 14:45 Cloudy 36 2 30 -1 81 81 NW 14 22 30.09 1019 10 16 N/A
3:50 pm 15:50 Cloudy 36 2 28 -2 75 75 NNW 10 17 30.15 1021 10 16 N/A
4:45 pm 16:45 Cloudy 36 2 27 -3 70 70 NNW 7 11 30.15 1021 10 16 N/A
5:45 pm 17:45 Cloudy 34 1 27 -3 75 75 NW 9 15 30.18 1022 10 16 N/A
6:45 pm 18:45 Cloudy 32 0 27 -3 80 80 NW 8 13 30.24 1024 10 16 N/A
7:45 pm 19:45 Cloudy 32 0 27 -3 80 80 N 6 9 30.24 1024 10 16 N/A
8:45 pm 20:45 Mostly Clear 32 0 27 -3 80 80 Calm 30.24 1024 10 16 N/A
9:50 pm 21:50 Mostly Clear 30 -1 27 -3 86 86 Calm 30.24 1024 10 16 N/A

Powered by AerisWeather